Tracking 27188 objects as of 2-Apr-2023
HD Live streaming from Space Station
objects crossing your sky now

RITE TARGET 2

Track RITE TARGET 2 now!
10-day predictions
RITE TARGET 2 is classified as:


NORAD ID: 28455
Int'l Code: 2002-056G
Perigee: 778.7 km
Apogee: 795.8 km
Inclination: 98.6 °
Period: 100.5 minutes
Semi major axis: 7158 km
RCS: 0.0143 m2 (small)
Launch date: December 14, 2002
Source: Japan (JPN)
Launch site: TANEGASHIMA SPACE CENTER (TNSTA)
Your satellite tracking list
Your tracking list is empty




NASA's NSSDC Master Catalog

Two Line Element Set (TLE):
1 28455U 02056G   23090.09855640  .00002064  00000-0  76217-3 0  9996
2 28455  98.6078  43.7389 0011964  81.6622 278.5918 14.33472787506540
Source of the keplerian elements: AFSPC